Flag for U.S.A. Weather past 2 weeks in Jacksonville, North Carolina, U.S.A.

Now
42 °F

Fog.


Feels Like: 39 °F
Forecast: 42 / 58 °F
Wind: 5 mph from Southwest

Location: Jacksonville - New River

Current Time: Mar 2, 2015 at 12:49:29 AM

Latest Report: Mar 2, 2015 at 12:04 AM


Visibility: 0 mi

Pressure: 30.32 "Hg

Humidity: 96%

Dew point: 41 °F

Location of JacksonvilleLocation

Historic Weather in Jacksonville — Graph

°F

Jacksonville temperature yesterday

Maximum temperature yesterday: 53 °F (at 12:56 PM)
Minimum temperature yesterday: 34 °F (at 3:56 AM)
Average temperature yesterday: 43 °F

Past Weeks' High & Low Weather Summary

 TemperatureHumidityPressure
High66 °F (Feb 22, 2:56 PM)100% (Feb 23, 4:01 AM)30.73 "Hg (Feb 23, 4:01 AM)
Low12 °F (Feb 20, 6:56 AM)20% (Feb 15, 3:56 PM)29.51 "Hg (Feb 26, 3:56 AM)
Average35 °F67%30.19 "Hg
* Reported Feb 14 10:56 PM — Mar 1 10:56 PM, Jacksonville, Weather by CustomWeather, © 2015

Note: Actual official high and low records may vary slightly from our data, if they occured in-between our weather recording intervals... More about our weather records

Advertising

Jacksonville weather history for previous 24 hours

 ConditionsComfort  
Time TempWeatherWind HumidityBarometerVisibility
10:56 PM
Sun, Mar 1
42 °FFog.No wind92%30.33 "Hg5 mi
9:56 PM41 °FFog.3 mph93%30.35 "Hg6 mi
8:56 PM42 °FLight rain. Fog.9 mph92%30.38 "Hg3 mi
7:56 PM43 °FRain. Fog.9 mph93%30.37 "Hg2 mi
6:56 PM45 °FRain. Fog.13 mph93%30.38 "Hg2 mi
5:56 PM48 °FMostly cloudy.7 mph89%30.36 "Hg10 mi
4:56 PM49 °FCloudy.3 mph86%30.37 "Hg8 mi
3:56 PM49 °FLight rain. Mostly cloudy.8 mph90%30.39 "Hg8 mi
2:56 PM51 °FCloudy.No wind77%30.39 "Hg10 mi
1:56 PM52 °FCloudy.3 mph69%30.40 "Hg10 mi
12:56 PM53 °FMostly cloudy.5 mph66%30.45 "Hg10 mi
11:56 AM52 °FMore clouds than sun.No wind64%30.48 "Hg10 mi
10:56 AM49 °FMostly cloudy.7 mph66%30.52 "Hg10 mi
9:56 AM46 °FCloudy.7 mph68%30.54 "Hg10 mi
8:56 AM42 °FBroken clouds.7 mph73%30.55 "Hg10 mi
7:56 AM37 °FPartly sunny.8 mph82%30.55 "Hg10 mi
6:56 AM35 °FMostly cloudy.6 mph82%30.57 "Hg10 mi
5:56 AM35 °FLight rain. Mostly cloudy.8 mph78%30.58 "Hg10 mi
4:56 AM35 °FMostly cloudy.8 mph72%30.58 "Hg10 mi
3:56 AM34 °FOvercast.8 mph76%30.57 "Hg10 mi
2:56 AM35 °FMostly cloudy.9 mph70%30.59 "Hg10 mi
1:56 AM35 °FOvercast.9 mph70%30.61 "Hg10 mi
12:56 AM35 °FChilly.9 mph67%30.64 "Hg10 mi
Weather by CustomWeather, © 2015

See weather overviewHow to use our weather pages